Montana Department of Transportation

Main Content

Accidents and Incidents Report

Hourly Weather Roundup

ASUS45 KGTF 261710
RWRMT 
MONTANA HOURLY WEATHER ROUNDUP
NATIONAL WEATHER SERVICE GREAT FALLS MT
1100 AM MDT SUN APR 26 2015

NOTE: "FAIR" INDICATES FEW OR NO CLOUDS BELOW 12000 FEET WITH NO
SIGNIFICANT WEATHER AND/OR OBSTRUCTIONS TO VISIBILITY.

MTZ001.007-043-261800-
WEST OF THE DIVIDE
  
CITY           SKY/WX    TMP DP  RH WIND       PRES   REMARKS
KALISPELL      CLOUDY    48  29  47 N7        30.10R                  
MISSOULA       LGT RAIN  39  36  89 NW6       30.13R                  
BUTTE          LGT SNOW  31  28  89 W13       30.04R FOG     WCI  21  
DEER LODGE       N/A     32  30  93 N7        30.14R WCI  26          
EUREKA           N/A     46  30  53 CALM        N/A                   
HAMILTON         N/A     39  36  87 CALM      30.10R                  
LIBBY            N/A     45  37  76 CALM      30.15R                  
--------------------------------

MTZ008-052.055-261800-
SOUTHWEST MONTANA
  
CITY           SKY/WX    TMP DP  RH WIND       PRES   REMARKS
BOZEMAN        CLOUDY    42  34  73 NW7       30.00R                  
DILLON         CLOUDY    36  33  89 CALM      29.99R                  
--------------------------------

MTZ009-010-012-014-046-048-049-054-261800-
EAST SLOPES AND CENTRAL MONTANA
  
CITY           SKY/WX    TMP DP  RH WIND       PRES   REMARKS
CUT BANK       CLOUDY    35  24  64 NW9       30.16R WCI  28          
GREAT FALLS    CLOUDY    33  25  72 NW5       30.16R                  
HELENA         CLOUDY    35  28  75 NW8       30.12R WCI  29          
--------------------------------

MTZ011-013-016-021-045-047-050-051-261800-
NORTH CENTRAL MONTANA
  
CITY           SKY/WX    TMP DP  RH WIND       PRES   REMARKS
HAVRE          CLOUDY    37  28  70 NW10      30.17R WCI  30          
LEWISTOWN      CLOUDY    34  28  79 NW10      30.12R WCI  26          
CHINOOK          N/A     37  27  65 W10       30.17R WCI  30          
FORT BENTON      N/A     37  27  65 CALM      30.19R                  
--------------------------------

MTZ017.020-022.042-056.058-061-062-261800-
EASTERN PLAINS
  
CITY           SKY/WX    TMP DP  RH WIND       PRES   REMARKS
BAKER          CLOUDY    45  38  76 NE15      30.07R                  
BILLINGS       CLOUDY    39  33  79 NE18      30.06R WCI  30          
GLASGOW        CLOUDY    41  32  70 NW13      30.11S                  
JORDAN           N/A     44  33  65 NW15      30.12R                  
LIVINGSTON     MIX PCPN  37  34  89 E18G25    30.02R WCI  27          
MILES CITY     CLOUDY    44  38  79 N16       30.08R                  
SIDNEY         CLOUDY    45  34  65 W6        30.12R                  
WOLF POINT     CLOUDY    44  34  67 NW9       30.12R                  
BIG TIMBER       N/A     32  32 100 N8        30.07R VSB 1/2 WCI  25  
FORSYTH          N/A     43  39  87 N9G16     30.08R                  
PLENTYWOOD       N/A     39  34  81 NW9       30.10S                  
POPLAR           N/A     43  36  75 W10       30.12R                  
--------------------------------

REGIONAL REPORTS...DAKOTAS
  
CITY           SKY/WX    TMP DP  RH WIND       PRES   REMARKS
WILLISTON      CLOUDY    46  35  65 N7        30.10R                  
MINOT          CLOUDY    45  41  86 NW8       30.08R                  
DICKINSON      LGT RAIN  42  39  89 N7        30.06R FOG              
BEACH          CLOUDY    39  39 100 N9        30.11R                  
CROSBY         CLOUDY    41  41 100 NW10      30.10R                  
WATFORD CITY   CLOUDY    41  37  87 NW9       30.09R                  
BISMARCK       CLOUDY    50  46  86 SE3       30.08R                  
GRAND FORKS    MOSUNNY   61  23  23 S10       30.13S                  
FARGO          SUNNY     62  13  14 SE9G17    30.13S                  
BUFFALO SD       N/A     43  41  93 NE16      29.97R                  
RAPID CITY     CLOUDY    44  43  96 N10       30.00R FOG              
--------------------------------

REGIONAL REPORTS...WYOMING/IDAHO/WASHINGTON
  
CITY           SKY/WX    TMP DP  RH WINDPRES   REMARKS
GILLETTE       LGT RAIN  41  39  93 NE13      29.96R FOG              
SHERIDAN       LGT RAIN  39  36  89 NW8       30.02R                  
BUFFALO WY     HVY RAIN  35  33  92 NW8       30.01R FOG     WCI  29  
CODY           CLOUDY    36  32  87 N9        29.97R WCI  29          
YELLOWSTONE LA   N/A     34  29  82 VRB3      29.94R                  
IDAHO FALLS    LGT RAIN  36  33  89 SW20G26   29.96R WCI  25          
SALMON         CLOUDY    43  30  61 CALM      30.03R                  
BOISE          SUNNY     49  28  44 NW22      30.09R                  
SPOKANE        FAIR      46  33  60 CALM      30.16R                  
--------------------------------

REGIONAL REPORTS...ALBERTA
  
CITY           SKY/WX    TMP DP  RH WIND       PRES   REMARKS
EDMONTON       SUNNY     45  21  39 S3        30.14S                  
CALGARY        PTSUNNY   43  21  42 VRB3      30.13S                  
LETHBRIDGE     CLOUDY    37  27  65 NW7       30.18R                  
MEDICINE HAT   CLOUDY    37  32  81 NW7       30.19R                  
--------------------------------

REGIONAL REPORTS...SASKATCHEWAN
  
CITY           SKY/WX    TMP DP  RH WIND       PRES   REMARKS
SWIFT CURRENT  CLOUDY    32  30  93 NW15G21   30.10R WCI  22          
REGINA         CLOUDY    37  32  81 W16G23    30.09R WCI  28          
SASKATOON      CLOUDY    34  32  93 NW13      30.07R WCI  25          
--------------------------------